Home > Weather > Aschersleben > Past weeks

Flag for Germany Past Weather in Aschersleben, Saxony-Anhalt, Germany — Yesterday and Last 2 Weeks

Now
68 °F

Broken clouds.


Feels Like: 68 °F
Forecast: 58 / 74 °F
Wind: 7 mph from Northwest

Location: Leipzig-Schkeuditz

Current Time: Jun 28, 2016 at 1:28:40 PM

Latest Report: Jun 28, 2016 at 12:50 PM


Visibility: N/A

Pressure: 30.07 "Hg

Humidity: 56%

Dew Point: 52 °F

Location of AscherslebenLocation

Past Weather in Aschersleben — Graph

°F

Aschersleben Temperature Yesterday

Maximum temperature yesterday: 73 °F (at 2:50 PM)
Minimum temperature yesterday: 54 °F (at 4:50 AM)
Average temperature yesterday: 65 °F

High & Low Weather Summary for the Past Weeks

 TemperatureHumidityPressure
High93 °F (Jun 24, 2:50 PM)100% (Jun 13, 10:50 PM)30.24 "Hg (Jun 13, 10:50 PM)
Low48 °F (Jun 20, 5:20 AM)30% (Jun 24, 2:50 PM)29.47 "Hg (Jun 14, 4:20 PM)
Average66 °F72%29.93 "Hg
* Reported Jun 13 12:20 PM — Jun 28 12:20 PM, Aschersleben, Weather by CustomWeather, © 2016

Note: Actual official high and low records may vary slightly from our data, if they occured in-between our weather recording intervals... More about our weather records

Advertising

Aschersleben Weather History for the Previous 24 Hours

Scroll right to see more
 ConditionsComfort  
Time TempWeatherWind HumidityBarometerVisibility
12:20 PM
Tue, Jun 28
68 °FBroken clouds.9 mph53%30.07 "HgN/A
11:50 AM66 °FBroken clouds.6 mph60%30.09 "HgN/A
11:20 AM64 °FBroken clouds.8 mph64%30.09 "HgN/A
10:50 AM64 °FPartly sunny.9 mph68%30.09 "HgN/A
10:20 AM63 °FPartly sunny.10 mph73%30.09 "HgN/A
9:50 AM63 °FPartly sunny.9 mph73%30.07 "HgN/A
9:20 AM61 °FPartly sunny.9 mph83%30.07 "HgN/A
8:50 AM61 °FPartly sunny.9 mph77%30.07 "HgN/A
8:20 AM61 °FPartly sunny.12 mph77%30.07 "HgN/A
7:50 AM61 °FPartly sunny.12 mph83%30.07 "HgN/A
7:20 AM61 °FPartly sunny.12 mph83%30.07 "HgN/A
6:50 AM61 °FPartly sunny.10 mph88%30.07 "HgN/A
6:20 AM63 °FBroken clouds.9 mph83%30.07 "HgN/A
5:50 AM61 °FPassing clouds.9 mph88%30.07 "HgN/A
5:20 AM61 °FPassing clouds.9 mph88%30.07 "HgN/A
4:50 AM61 °FPartly cloudy.9 mph88%30.04 "HgN/A
4:20 AM61 °FPartly cloudy.8 mph88%30.04 "HgN/A
3:50 AM61 °FPartly cloudy.8 mph88%30.04 "HgN/A
3:20 AM61 °FPartly cloudy.8 mph88%30.04 "HgN/A
2:50 AM61 °FPartly cloudy.9 mph88%30.07 "HgN/A
2:20 AM61 °FPartly cloudy.10 mph94%30.07 "HgN/A
1:50 AM61 °FLight rain. Partly cloudy.13 mph88%30.07 "HgN/A
1:20 AM63 °FClear.13 mph83%30.07 "Hg10 mi
12:50 AM63 °FClear.13 mph77%30.07 "Hg10 mi
12:20 AM63 °FClear.13 mph77%30.07 "Hg10 mi
11:50 PM
Mon, Jun 27
64 °FClear.10 mph73%30.07 "Hg10 mi
11:20 PM64 °FPassing clouds.9 mph68%30.07 "HgN/A
10:50 PM64 °FClear.14 mph68%30.07 "Hg10 mi
10:20 PM64 °FSunny.12 mph68%30.07 "Hg10 mi
9:50 PM64 °FSunny.10 mph68%30.07 "Hg10 mi
9:20 PM66 °FSunny.10 mph60%30.04 "Hg10 mi
8:50 PM64 °FSunny.13 mph64%30.04 "Hg10 mi
8:20 PM68 °FSunny.12 mph49%30.04 "Hg10 mi
7:50 PM70 °FSunny.13 mph46%30.04 "Hg10 mi
7:20 PM72 °FSunny.13 mph41%30.04 "Hg10 mi
6:50 PM72 °FSunny.17 mph38%30.04 "Hg10 mi
6:20 PM72 °FSunny.14 mph41%30.04 "Hg10 mi
5:50 PM73 °FSunny.17 mph38%30.04 "Hg10 mi
5:20 PM73 °FSunny.15 mph38%30.04 "Hg10 mi
4:50 PM73 °FSunny.15 mph36%30.04 "Hg10 mi
4:20 PM73 °FPassing clouds.13 mph38%30.04 "HgN/A
3:50 PM72 °FPassing clouds.13 mph44%30.04 "HgN/A
3:20 PM73 °FPassing clouds.12 mph41%30.07 "HgN/A
2:50 PM73 °FSunny.14 mph41%30.07 "Hg10 mi
2:20 PM70 °FSunny.13 mph46%30.07 "Hg10 mi
1:50 PM70 °FPassing clouds.13 mph43%30.07 "HgN/A
1:20 PM70 °FScattered clouds.10 mph46%30.07 "HgN/A
Weather by CustomWeather, © 2016

See weather overviewHow to use our weather pages